[[{"header":{"parameterUnit":"m.s-1","parameterCategory":1,"la1":30.2991,"la2":30.254,"lo1":-89.0895,"lo2":-89.0444,"dy":0.0017,"dx":0.0017,"nx":28,"ny":28,"refTime":"2025-03-28T09:00:00:Z","depth":0,"parameterNumber":2,"parameterNumberName":"U-component_of_WINDS"},"data":[0,0,0,0,0,0,0,0,0,0,0,0,0,0,0,0,0,0,0,0,0,0,0,0,0,0,0,0,0,0,0,0,0,0,0,0,0,0,0,0,0,0,0,0,0,0,0,0,0,0,0,0,0,0,0,0,0,0,-5.7588,-5.7589,0,-5.7691,-5.7692,-5.7693,-5.7679,-5.7678,-5.7676,-5.7674,-5.7775,-5.7779,-5.7783,0,0,0,0,0,0,0,0,0,0,0,0,0,-5.7376,-5.738,-5.7588,-5.7589,-5.759,-5.769,-5.7692,-5.7693,-5.768,-5.7678,-5.7675,-5.7674,-5.7774,-5.7779,-5.7784,0,0,0,0,0,0,0,0,0,0,0,0,0,-5.7472,-5.7381,-5.7587,-5.7596,-5.7597,-5.769,-5.7692,-5.7694,-5.768,-5.7677,-5.7675,-5.7673,-5.7772,-5.7778,-5.7784,-5.7874,0,0,-5.7804,-5.7807,0,0,0,0,0,0,0,0,-5.7467,-5.748,-5.7593,-5.7595,-5.7597,-5.767,-5.7654,-5.7754,-5.7681,-5.7648,-5.7674,-5.7671,-5.7742,-5.775,-5.7775,-5.7879,-5.7883,-5.7804,-5.7808,-5.7811,-5.7813,0,0,0,0,0,0,0,-5.746,-5.7475,-5.7628,-5.7595,-5.7597,-5.7593,-5.7604,-5.7673,-5.7708,-5.7651,-5.765,-5.7663,-5.7742,-5.7769,-5.7777,-5.7884,-5.7804,-5.781,-5.7814,-5.7816,-5.8067,-5.8069,0,0,0,0,0,0,-5.7452,-5.747,-5.7625,-5.7631,-5.7525,-5.7599,-5.7611,-5.7649,-5.7707,-5.7714,-5.7665,-5.7662,-5.7759,-5.777,-5.7781,-5.7889,-5.7811,-5.7817,-5.782,-5.8064,-5.8067,-5.807,0,0,0,0,0,0,-5.7447,-5.7466,-5.7621,-5.7551,-5.757,-5.7605,-5.7648,-5.7652,-5.7679,-5.7718,-5.7723,-5.7686,-5.7758,-5.7772,-5.7851,-5.7892,-5.782,-5.7825,-5.806,-5.8065,-5.8069,-5.8106,0,0,0,0,0,0,-5.7441,-5.7464,-5.7499,-5.7552,-5.7574,-5.7691,-5.765,-5.7656,-5.769,-5.7687,-5.7739,-5.7745,-5.7757,-5.7842,-5.7857,-5.7899,-5.783,-5.8057,-5.8062,-5.8067,-5.8101,-5.8111,-5.8119,0,0,0,0,0,-5.7434,-5.7505,-5.7501,-5.752,-5.7619,-5.7693,-5.7706,-5.7719,-5.7694,-5.7729,-5.7754,-5.7743,-5.7886,-5.785,-5.7868,-5.7912,-5.8054,-5.8061,-5.8067,-5.8097,-5.8109,-5.8119,0,0,0,0,0,0,-5.7454,-5.7511,-5.7508,-5.7598,-5.7641,-5.7691,-5.7735,-5.7731,-5.7781,-5.7776,-5.7789,-5.7801,-5.7881,-5.7905,-5.7864,-5.8002,-5.7966,-5.7977,-5.7983,-5.7995,-5.8003,-5.7995,-5.7836,0,0,0,0,0,-5.747,-5.7527,-5.7573,-5.7648,-5.767,-5.7699,-5.7732,-5.7739,-5.7783,-5.7801,-5.7831,-5.7873,-5.7928,-5.7963,-5.8015,-5.8105,-5.8116,-5.8145,-5.8154,-5.8161,-5.8169,-5.8218,-5.8231,-5.8091,-5.8091,-5.8091,0,0,-5.7501,-5.7539,-5.7574,-5.7653,-5.7687,-5.7744,-5.7714,-5.7776,-5.7818,-5.7809,-5.7886,-5.7911,-5.7959,-5.8044,-5.8083,-5.8066,-5.821,-5.8169,-5.8175,-5.8178,-5.8225,-5.8239,-5.825,-5.8096,-5.8095,-5.8094,0,0,-5.7587,-5.7623,-5.7689,-5.7724,-5.7777,-5.7796,-5.7812,-5.7863,-5.7879,-5.7957,-5.7952,-5.8002,-5.8096,-5.813,-5.8159,-5.8261,-5.8252,-5.8278,-5.8324,-5.8371,-5.8382,-5.8392,-5.8426,-5.8439,-5.8286,-5.8286,-5.8286,0,-5.7619,-5.7706,-5.7723,-5.7786,-5.782,-5.7818,-5.7884,-5.7917,-5.7983,-5.8007,-5.7988,-5.8105,-5.8138,-5.823,-5.8255,-5.828,-5.8297,-5.827,-5.838,-5.839,-5.8399,-5.8432,-5.8445,-5.8289,-5.8288,-5.8288,-5.8288,0,-5.7742,-5.7803,-5.785,-5.7916,-5.7956,-5.802,-5.8045,-5.8084,-5.8089,-5.8109,-5.8189,-5.8228,-5.8288,-5.8311,-5.8315,-5.8405,-5.8392,-5.8377,-5.8341,-5.8414,-5.8446,-5.8459,-5.8292,-5.8291,-5.8291,-5.829,0,0,-5.7841,-5.7917,-5.7934,-5.7964,-5.8023,-5.8069,-5.8134,-5.8194,-5.8226,-5.8273,-5.8326,-5.8406,-5.8392,-5.8426,-5.8434,-5.8477,-5.8553,-5.8456,-5.8457,-5.847,-5.8652,-5.8662,-5.8677,-5.8549,-5.8552,-5.8554,-5.8648,0,-5.7931,-5.8046,-5.8063,-5.8164,-5.822,-5.8219,-5.8275,-5.8317,-5.8339,-5.8389,-5.8412,-5.8469,-5.8447,-5.8467,-5.8509,-5.8535,-5.8589,-5.8529,-5.8597,-5.8599,-5.8582,-5.8693,-5.8704,-5.879,-5.866,-5.8662,-5.8664,0,-5.8051,-5.8103,-5.8209,-5.8261,-5.8285,-5.8335,-5.8392,-5.844,-5.8488,-5.8501,-5.854,-5.8543,-5.8609,-5.8573,-5.8663,-5.8621,-5.865,-5.8667,-5.8671,-5.8675,-5.8634,-5.8698,-5.8818,-5.883,-5.8684,-5.8682,-5.8681,0,-5.811,-5.8206,-5.8282,-5.8308,-5.8371,-5.8406,-5.8434,-5.8479,-5.8514,-5.8564,-5.8587,-5.8643,-5.8673,-5.8717,-5.8735,-5.8707,-5.8823,-5.8789,-5.8834,-5.8834,-5.8856,-5.8854,-5.898,-5.8879,-5.8879,-5.8879,-5.8879,0,-5.8208,-5.8272,-5.831,-5.8356,-5.8429,-5.8449,-5.8519,-5.8546,-5.8586,-5.8637,-5.864,-5.8688,-5.8711,-5.8761,-5.8776,-5.8848,-5.8862,-5.8873,-5.8875,-5.8871,-5.8869,-5.8888,-5.8882,-5.8882,-5.8882,-5.8881,-5.888,0,-5.8284,-5.8313,-5.8395,-5.8449,-5.8464,-5.8515,-5.856,-5.8605,-5.8628,-5.8692,-5.8708,-5.8743,-5.8803,-5.8827,-5.89,-5.891,-5.8992,-5.8991,-5.8976,-5.8976,-5.9019,-5.9014,-5.9159,-5.9179,-5.9068,-5.9069,-5.907,0,-5.8343,-5.8393,-5.8453,-5.8489,-5.8518,-5.8574,-5.8611,-5.8633,-5.8671,-5.8729,-5.8766,-5.8827,-5.8876,-5.8972,-5.9002,-5.9058,-5.9057,-5.9105,-5.9065,-5.906,-5.9056,-5.9052,-5.9056,-5.9111,-5.9112,-5.9113,-5.9114,0,-5.8445,-5.8457,-5.851,-5.8569,-5.8613,-5.866,-5.8706,-5.8734,-5.8763,-5.8805,-5.8868,-5.8906,-5.8982,-5.9041,-5.9099,-5.9126,-5.9124,-5.9126,-5.9139,-5.9134,-5.9122,-5.9127,-5.8993,-5.9122,-5.9121,-5.9121,-5.912,-5.912,-5.8513,-5.8558,-5.8607,-5.8667,-5.8704,-5.8747,-5.8792,-5.8821,-5.8874,-5.8938,-5.8948,-5.9014,-5.906,-5.9138,-5.9168,-5.9219,-5.9206,-5.9226,-5.923,-5.9234,-5.9236,-5.9117,-5.923,-5.923,-5.923,-5.9229,-5.9229,0,-5.8613,-5.8646,-5.8701,-5.8765,-5.8812,-5.881,-5.886,-5.8899,-5.8958,-5.9002,-5.9051,-5.9122,-5.918,-5.9217,-5.9275,-5.9309,-5.931,-5.9323,-5.932,-5.9326,-5.9245,-5.9227,-5.9322,-5.9322,-5.9322,-5.9322,-5.9322,-5.9322,-5.8671,-5.8745,-5.8763,-5.8856,-5.8888,-5.8954,-5.8983,-5.9022,-5.9058,-5.9138,-5.9187,-5.9211,-5.9252,-5.9314,-5.9367,-5.9376,-5.9396,-5.941,-5.9418,-5.9341,-5.9331,-5.9322,-5.9305,-5.9415,-5.9415,-5.9495,-5.9495,-5.9496]},{"header":{"parameterUnit":"m.s-1","parameterCategory":1,"la1":30.2991,"la2":30.254,"lo1":-89.0895,"lo2":-89.0444,"dy":0.0017,"dx":0.0017,"nx":28,"ny":28,"refTime":"2025-03-28T09:00:00:Z","depth":0,"parameterNumber":3,"parameterNumberName":"V-component_of_WINDS"},"data":[0,0,0,0,0,0,0,0,0,0,0,0,0,0,0,0,0,0,0,0,0,0,0,0,0,0,0,0,0,0,0,0,0,0,0,0,0,0,0,0,0,0,0,0,0,0,0,0,0,0,0,0,0,0,0,0,0,0,5.2866,5.2868,0,5.3023,5.3025,5.3027,5.3045,5.3043,5.3041,5.304,5.3195,5.3201,5.3206,0,0,0,0,0,0,0,0,0,0,0,0,0,5.2577,5.2582,5.2866,5.2868,5.287,5.3023,5.3025,5.3027,5.3045,5.3043,5.3041,5.3039,5.3193,5.32,5.3207,0,0,0,0,0,0,0,0,0,0,0,0,0,5.2715,5.2584,5.2866,5.2897,5.2902,5.3023,5.3025,5.3028,5.3045,5.3043,5.3041,5.3038,5.3191,5.3199,5.3207,5.3306,0,0,5.3233,5.3237,0,0,0,0,0,0,0,0,5.2707,5.2725,5.2891,5.2895,5.29,5.3012,5.298,5.3121,5.3046,5.2991,5.304,5.3037,5.3136,5.3148,5.3183,5.3313,5.332,5.3234,5.3239,5.3242,5.3245,0,0,0,0,0,0,0,5.2697,5.2719,5.2928,5.2893,5.2899,5.2902,5.2919,5.3007,5.3074,5.2995,5.2997,5.3016,5.3138,5.3175,5.3187,5.3322,5.3234,5.3241,5.3246,5.3249,5.3543,5.3546,0,0,0,0,0,0,5.2683,5.2711,5.2923,5.2933,5.2796,5.2909,5.2929,5.2978,5.3073,5.3086,5.3017,5.3016,5.3162,5.3177,5.3192,5.3316,5.3242,5.325,5.3255,5.3541,5.3544,5.3547,0,0,0,0,0,0,5.2676,5.2702,5.2917,5.2822,5.285,5.2917,5.2973,5.2983,5.302,5.309,5.3102,5.3043,5.316,5.318,5.3279,5.3321,5.3254,5.3262,5.3537,5.3542,5.3545,5.3562,0,0,0,0,0,0,5.2668,5.2699,5.2738,5.2823,5.2855,5.3002,5.2976,5.2988,5.3035,5.3034,5.3117,5.3129,5.316,5.3266,5.3287,5.3331,5.3268,5.3534,5.3539,5.3544,5.3558,5.3566,5.3573,0,0,0,0,0,5.2658,5.2735,5.274,5.2765,5.2905,5.3004,5.3022,5.3058,5.3038,5.3078,5.3123,5.3126,5.3313,5.3276,5.3299,5.3347,5.3531,5.3538,5.3544,5.3554,5.3564,5.3573,0,0,0,0,0,0,5.265,5.2746,5.2753,5.286,5.2924,5.3007,5.3058,5.3068,5.3137,5.3133,5.3173,5.3192,5.3289,5.3328,5.3284,5.3449,5.342,5.3431,5.342,5.343,5.3438,5.3426,5.3275,0,0,0,0,0,5.2661,5.2735,5.2814,5.2901,5.2933,5.299,5.3034,5.3057,5.3124,5.315,5.3203,5.3266,5.334,5.3387,5.3458,5.3563,5.3582,5.3608,5.3616,5.3622,5.3631,5.3691,5.3704,5.3568,5.3567,5.3567,0,0,5.2684,5.2746,5.2789,5.2901,5.2953,5.3028,5.3012,5.3091,5.3147,5.3162,5.3259,5.3299,5.3373,5.3476,5.3524,5.3511,5.3673,5.363,5.3634,5.364,5.3699,5.3712,5.3723,5.3572,5.3571,5.357,0,0,5.2765,5.2819,5.2898,5.2952,5.3032,5.307,5.3089,5.3171,5.3199,5.3298,5.3311,5.3377,5.3502,5.3554,5.3597,5.3701,5.3706,5.3722,5.3762,5.3821,5.3832,5.3841,5.3879,5.3892,5.3731,5.3731,5.3731,0,5.2783,5.2897,5.2937,5.3017,5.3066,5.3085,5.3166,5.3215,5.3313,5.3346,5.3332,5.3491,5.3541,5.3658,5.3683,5.3717,5.374,5.3713,5.3827,5.3837,5.3847,5.3884,5.3898,5.3733,5.3733,5.3732,5.3732,0,5.2916,5.2996,5.305,5.3148,5.3203,5.3282,5.3333,5.3384,5.3402,5.3441,5.3541,5.3603,5.3688,5.3717,5.3735,5.3837,5.3827,5.3819,5.3791,5.3861,5.3896,5.3911,5.3735,5.3734,5.3734,5.3734,0,0,5.2996,5.3116,5.3136,5.3181,5.3272,5.3334,5.3414,5.35,5.3543,5.3611,5.3679,5.3786,5.378,5.3829,5.3852,5.3904,5.3984,5.389,5.3892,5.3906,5.4102,5.4108,5.4123,5.3988,5.3991,5.3993,5.4096,0,5.3088,5.3234,5.3273,5.3397,5.3471,5.3492,5.3562,5.3625,5.3664,5.3732,5.3773,5.3849,5.3835,5.3865,5.3917,5.3963,5.4023,5.3956,5.4052,5.4055,5.4034,5.4142,5.4148,5.4242,5.411,5.4112,5.4114,0,5.3214,5.3288,5.342,5.3504,5.3536,5.3599,5.3682,5.3747,5.3818,5.3843,5.3899,5.3919,5.4003,5.3971,5.4087,5.4041,5.4082,5.4111,5.4115,5.4126,5.4089,5.4156,5.4273,5.4287,5.4136,5.4134,5.4132,0,5.3261,5.3392,5.3489,5.3527,5.3627,5.3671,5.3714,5.3784,5.3834,5.3905,5.3938,5.4017,5.4061,5.4122,5.4162,5.4134,5.4276,5.4246,5.4299,5.4298,5.4328,5.4325,5.4454,5.4353,5.4352,5.4352,5.4352,0,5.336,5.3441,5.3512,5.3572,5.3662,5.3706,5.3794,5.3837,5.39,5.3968,5.3989,5.4052,5.4101,5.417,5.4202,5.4294,5.4313,5.4335,5.4343,5.4334,5.4332,5.4362,5.4357,5.4356,5.4355,5.4354,5.4354,0,5.3428,5.3479,5.3586,5.3673,5.3696,5.3759,5.3833,5.3891,5.3931,5.4017,5.404,5.4102,5.4185,5.4232,5.4335,5.4356,5.446,5.4463,5.4437,5.444,5.449,5.4485,5.4643,5.4667,5.4549,5.455,5.4551,0,5.3488,5.3551,5.3646,5.3694,5.3739,5.3815,5.3867,5.3912,5.3965,5.4053,5.4101,5.4186,5.4256,5.4388,5.4441,5.4521,5.4527,5.4577,5.4539,5.4529,5.453,5.4526,5.4533,5.4584,5.4585,5.4586,5.4587,0,5.3591,5.3614,5.3689,5.3774,5.3835,5.3903,5.3971,5.4008,5.4064,5.4123,5.4209,5.4264,5.4372,5.4456,5.454,5.4583,5.4595,5.4598,5.4615,5.4607,5.459,5.4601,5.4456,5.4594,5.4594,5.4593,5.4593,5.4592,5.3658,5.3716,5.3792,5.3875,5.3931,5.3994,5.4054,5.4103,5.4177,5.427,5.4291,5.4383,5.4454,5.4569,5.4615,5.4686,5.4677,5.47,5.4706,5.4712,5.4715,5.4578,5.4701,5.4701,5.4701,5.4701,5.4701,0,5.3763,5.3814,5.389,5.3985,5.4051,5.4058,5.4134,5.4188,5.4269,5.4335,5.4405,5.4505,5.4588,5.4649,5.4733,5.4778,5.4786,5.4799,5.4796,5.4806,5.4717,5.4696,5.4792,5.4792,5.4792,5.4792,5.4791,5.4791,5.3826,5.3925,5.3957,5.4084,5.4133,5.4225,5.4268,5.4326,5.438,5.4492,5.4561,5.4601,5.4666,5.4755,5.4831,5.4847,5.4877,5.489,5.4906,5.4822,5.4812,5.4803,5.4783,5.4896,5.4896,5.4989,5.499,5.4991]}]]